Location: Central Falls
(41.8900°N, 71.3929°W)
Time: 03:27:59
(UTC+00:00)

Vanguard 2 Rocket - Pass Details

Date: 03 December 2023
Orbit: 555 x 3309 km, 32.9° (Epoch: 01 March)

Event Time Altitude Azimuth Distance (km) Brightness Sun altitude
Rises 21:39:22 0° 257° (WSW) 6,929 13.4 -4.9°
Reaches altitude 10° 21:43:47 10° 255° (WSW) 6,088 12.8 -5.6°
Maximum altitude 22:03:35 64° 180° (S) 3,419 9.9 -9.0°
Drops below altitude 10° 22:19:58 10° 104° (ESE) 5,170 10.2 -11.9°
Enters shadow 22:21:47 - 103° (ESE) 5,541 10.4 -12.2°
Sets 22:23:22 0° 102° (ESE) 5,880 - -12.4°
